(304506) = 2006 UR190

Discovered at Catalina on 2006-10-19 by CSS.

Orbit

Orbit type: Main Belt

Note: WebGL enabled browser required.

epoch2023-09-13.0
epoch JD2460200.5
perihelion date2023-08-08.91811
perihelion JD2460165.41811
argument of perihelion (°)61.87394
ascending node (°)323.37942
inclination (°)9.84607
eccentricity0.2317376
perihelion distance (AU)2.4301699
Tisserand w.r.t. Jupiter3.1
ΔV w.r.t. Earth (km/sec)10.3
semimajor axis (AU)3.1632031
mean anomaly (°)6.14605
mean daily motion (°/day)0.17519160
aphelion distance (AU)3.896
period (years)5.63
P-vector [x]0.89668141
P-vector [y]0.32186429
P-vector [z]0.30391747
Q-vector [x]-0.43076383
Q-vector [y]0.79261952
Q-vector [z]0.43150529
absolute magnitude16.2
phase slope0.15
uncertainty0
referenceMPEC 2024-B145
observations used225
oppositions13
arc length (days)8546
first opposition used2000
last opposition used2024
residual rms (arc-secs)0.68
perturbers coarse indicatorM-v
perturbers precise indicator003Ek
first observation date used2000-09-03.0
last observation date used2024-01-27.0
computer nameMPCLINUX
JD of orbit computation2456731.544176
perihelion JD uncertainty (days)1.2275E-04
argument of perihelion uncertainty (°)4.8016E-05
ascending node uncertainty (°)3.9186E-05
inclination uncertainty (°)7.8436E-06
eccentricity uncertainty 6.8777E-08
perihelion distance uncertainty (AU)2.1925E-07
Minimum Orbit Intersection Distances (in AU)
for orbit epoch: 2460200.5, reference: E2024-BE5
Mercury2.10266
Venus1.72527
Earth1.45123
Mars1.04404
Jupiter1.73344
Saturn5.78513
Uranus14.6956
Neptune26.8793

Observations

231 total observations over interval: 2000 09 03.27636 – 2024 01 27.319328
These data are available for download (format description).

Date (UT) J2000 RA J2000 Dec Magn Location Ref
2000 09 03.27636 22 54 01.72 -01 12 10.2 18.8   704 – Lincoln Laboratory ETS, New Mexico MPS 213825
2000 09 03.28959 22 54 01.00 -01 12 09.4 18.9   704 – Lincoln Laboratory ETS, New Mexico MPS 213825
2000 09 03.30277 22 54 00.33 -01 12 10.4 18.6   704 – Lincoln Laboratory ETS, New Mexico MPS 213825
2000 09 03.31629 22 53 59.58 -01 12 11.4 19.2   704 – Lincoln Laboratory ETS, New Mexico MPS 213825
2000 09 25.18537 22 36 21.18 -01 37 22.4 20.0 V 691 – Steward Observatory, Kitt Peak-Spacewatch MPS 190608
2000 09 25.20697 22 36 20.27 -01 37 23.9 20.0 V 691 – Steward Observatory, Kitt Peak-Spacewatch MPS 190608
2000 09 25.22892 22 36 19.34 -01 37 25.5 20.1 V 691 – Steward Observatory, Kitt Peak-Spacewatch MPS 190608
2001 12 15.322380 07 58 03.355 +29 42 55.46 21.06 V 645 – Apache Point-Sloan Digital Sky Survey MPS 190608
2001 12 15.325852 07 58 03.189 +29 42 55.79 21.75   645 – Apache Point-Sloan Digital Sky Survey MPS 190608
2006 09 28.37337 02 07 32.08 +27 26 55.1 19.0 V 703 – Catalina Sky Survey MPS 185739
2006 09 28.37983 02 07 31.90 +27 26 56.2 19.1 V 703 – Catalina Sky Survey MPS 185739
2006 09 28.38627 02 07 31.69 +27 26 58.1 19.1 V 703 – Catalina Sky Survey MPS 185739
2006 09 28.39280 02 07 31.36 +27 27 00.0 19.8 V 703 – Catalina Sky Survey MPS 185739
2006 10 11.35388 01 58 42.86 +27 50 42.5 19.3 R 644 – Palomar Mountain/NEAT MPS 185739
2006 10 11.37478 01 58 41.80 +27 50 43.0 19.6 R 644 – Palomar Mountain/NEAT MPS 185739
2006 10 11.39572 01 58 40.74 +27 50 43.4 19.3 R 644 – Palomar Mountain/NEAT MPS 185739
2006 10 19.26407 01 52 00.30 +27 46 15.2 19.7 V 703 – Catalina Sky Survey MPS 185739
2006 10 19.27266 01 51 59.83 +27 46 14.0 19.1 V 703 – Catalina Sky Survey MPS 185739
2006 10 19.28125 01 51 59.40 +27 46 14.4 19.2 V 703 – Catalina Sky Survey MPS 185739
2006 10 19.28986 01 51 58.75 +27 46 13.3 19.3 V 703 – Catalina Sky Survey MPS 185739
2006 10 19.29819 01 51 58.46 +27 46 11.5 19.5 V 703 – Catalina Sky Survey MPS 185739
2006 10 19.30838 01 51 57.88 +27 46 10.7 19.4 V 703 – Catalina Sky Survey MPS 185739
2006 10 19.31856 01 51 57.27 +27 46 09.0 19.4 V 703 – Catalina Sky Survey MPS 185739
2006 10 19.32875 01 51 56.66 +27 46 09.3 20.0 V 703 – Catalina Sky Survey MPS 185739
2006 10 23.35939 01 48 21.61 +27 38 24.6 20.4 R 644 – Palomar Mountain/NEAT MPS 185739
2006 10 23.36058 01 48 21.56 +27 38 24.3 19.2 R 644 – Palomar Mountain/NEAT MPS 185739
2006 10 23.38044 01 48 20.45 +27 38 21.3 19.9 R 644 – Palomar Mountain/NEAT MPS 185739
2006 10 23.38163 01 48 20.39 +27 38 21.2 19.6 R 644 – Palomar Mountain/NEAT MPS 185739
2006 10 23.40131 01 48 19.29 +27 38 18.1 19.0 R 644 – Palomar Mountain/NEAT MPS 185739
2006 10 23.40250 01 48 19.24 +27 38 18.1 19.8 R 644 – Palomar Mountain/NEAT MPS 185739
2006 10 27.25753 01 44 54.16 +27 27 46.1 19.2 V 703 – Catalina Sky Survey MPS 185739
2006 10 27.26507 01 44 53.80 +27 27 45.0 19.7 V 703 – Catalina Sky Survey MPS 185739
2006 10 27.27260 01 44 53.41 +27 27 43.1 19.0 V 703 – Catalina Sky Survey MPS 185739
2006 10 27.28013 01 44 52.98 +27 27 41.5 19.1 V 703 – Catalina Sky Survey MPS 185739
2006 11 15.18716 01 30 38.91 +26 04 58.9 18.5 V 703 – Catalina Sky Survey MPS 187186
2006 11 15.19369 01 30 38.73 +26 04 58.0 19.0 V 703 – Catalina Sky Survey MPS 187186
2006 11 15.20023 01 30 38.55 +26 04 55.8 18.9 V 703 – Catalina Sky Survey MPS 187186
2006 11 15.20676 01 30 38.30 +26 04 52.6 19.5 V 703 – Catalina Sky Survey MPS 187186
2006 11 22.20998 01 27 19.54 +25 28 32.2 19.0 V 703 – Catalina Sky Survey MPS 286943
2006 11 22.21865 01 27 19.36 +25 28 26.7 19.0 V 703 – Catalina Sky Survey MPS 286943
2006 11 22.22728 01 27 19.11 +25 28 24.0 19.7 V 703 – Catalina Sky Survey MPS 286943
2006 11 22.23591 01 27 18.90 +25 28 19.7 19.8 V 703 – Catalina Sky Survey MPS 286943
2008 02 07.19388 09 27 41.61 +16 14 30.1 20.7 V 691 – Steward Observatory, Kitt Peak-Spacewatch MPS 236333
2008 02 07.21149 09 27 40.66 +16 14 32.3 20.6 V 691 – Steward Observatory, Kitt Peak-Spacewatch MPS 236333
2008 02 07.22913 09 27 39.68 +16 14 34.2 20.3 V 691 – Steward Observatory, Kitt Peak-Spacewatch MPS 236333
2008 03 14.22098 09 01 39.50 +16 46 51.9 21.8 V G96 – Mt. Lemmon Survey MPS 242185
2008 03 14.22697 09 01 39.39 +16 46 51.2 21.6 V G96 – Mt. Lemmon Survey MPS 242185
2008 03 14.24031 09 01 39.00 +16 46 50.5 22.0 V G96 – Mt. Lemmon Survey MPS 242185
2008 03 14.24780 09 01 38.78 +16 46 50.6 22.6 V G96 – Mt. Lemmon Survey MPS 242185
2011 08 01.42971 21 07 35.763 -19 48 19.02 20.3 g F51 – Pan-STARRS 1, Haleakala MPS 388384
2011 08 01.44180 21 07 35.096 -19 48 19.33 20.5 g F51 – Pan-STARRS 1, Haleakala MPS 388384
2011 10 21.09495 20 41 21.08 -16 59 02.5 22.1 V G96 – Mt. Lemmon Survey MPS 395051
2011 10 21.10311 20 41 21.33 -16 58 59.7 20.9 V G96 – Mt. Lemmon Survey MPS 395051
2011 10 21.11130 20 41 21.62 -16 58 57.1 21.0 V G96 – Mt. Lemmon Survey MPS 395051
2011 10 21.11946 20 41 21.91 -16 58 55.0 21.0 V G96 – Mt. Lemmon Survey MPS 395051
2012 12 22.40343 05 23 28.293 +36 18 06.46 19.8 i F51 – Pan-STARRS 1, Haleakala MPS 448736
2012 12 22.41683 05 23 27.476 +36 18 03.34 19.7 i F51 – Pan-STARRS 1, Haleakala MPS 448736
2012 12 22.48275 05 23 23.384 +36 17 46.80 20.0 r F51 – Pan-STARRS 1, Haleakala MPS 448736
2012 12 22.49519 05 23 22.624 +36 17 43.86 20.0 r F51 – Pan-STARRS 1, Haleakala MPS 448736
2014 02 26.46800 10 47 50.282 +03 11 58.77 21.1 w F51 – Pan-STARRS 1, Haleakala MPS 503839
2014 02 26.47960 10 47 49.713 +03 12 00.67 21.0 w F51 – Pan-STARRS 1, Haleakala MPS 503839
2014 02 26.49114 10 47 49.141 +03 12 02.67 21.1 w F51 – Pan-STARRS 1, Haleakala MPS 503839
2014 02 26.50270 10 47 48.580 +03 12 04.76 21.1 w F51 – Pan-STARRS 1, Haleakala MPS 503839
2015 04 19.37977 13 36 33.04 -23 10 17.6 21.5 V W84 – Cerro Tololo-DECam MPS 789537
2015 04 19.38299 13 36 32.89 -23 10 16.8   W84 – Cerro Tololo-DECam MPS 789537
2015 04 19.38622 13 36 32.74 -23 10 16.2   W84 – Cerro Tololo-DECam MPS 789537
2015 04 19.38945 13 36 32.59 -23 10 15.6   W84 – Cerro Tololo-DECam MPS 789537
2015 04 19.39274 13 36 32.43 -23 10 14.8   W84 – Cerro Tololo-DECam MPS 789537
2017 06 30.52815 23 51 05.47 +01 48 20.0 20.6 z T09 – Subaru Telescope, Maunakea MPS 2110387
2017 06 30.55505 23 51 06.52 +01 48 33.7 20.6 z T09 – Subaru Telescope, Maunakea MPS 2110387
2017 06 30.61159 23 51 08.70 +01 49 03.5 20.6 z T09 – Subaru Telescope, Maunakea MPS 2110387
2017 07 27.50004 00 02 18.663 +05 10 18.44 20.3 w F51 – Pan-STARRS 1, Haleakala MPS 807734
2017 07 27.51235 00 02 18.739 +05 10 23.11 20.2 w F51 – Pan-STARRS 1, Haleakala MPS 807734
2017 07 27.52461 00 02 18.809 +05 10 27.74 20.2 w F51 – Pan-STARRS 1, Haleakala MPS 807734
2017 07 27.53689 00 02 18.884 +05 10 32.34 20.2 w F51 – Pan-STARRS 1, Haleakala MPS 807734
2017 07 29.57326 00 02 31.447 +05 23 04.71 20.2 w F51 – Pan-STARRS 1, Haleakala MPS 809111
2017 07 29.58607 00 02 31.483 +05 23 09.35 20.4 w F51 – Pan-STARRS 1, Haleakala MPS 809111
2017 07 29.59878 00 02 31.528 +05 23 13.92 20.2 w F51 – Pan-STARRS 1, Haleakala MPS 809111
2017 07 29.61148 00 02 31.558 +05 23 18.54 20.3 w F51 – Pan-STARRS 1, Haleakala MPS 809111
2017 08 27.72906 23 54 29.09 +07 24 19.8 19.2 R D29 – Purple Mountain Observatory, XuYi Station MPS 814799
2017 08 27.72995 23 54 29.06 +07 24 20.1 19.5 R D29 – Purple Mountain Observatory, XuYi Station MPS 814799
2017 08 27.74321 23 54 28.53 +07 24 21.5 20.0 R D29 – Purple Mountain Observatory, XuYi Station MPS 814799
2017 08 27.74409 23 54 28.51 +07 24 21.7 19.7 R D29 – Purple Mountain Observatory, XuYi Station MPS 814799
2017 08 27.75735 23 54 27.99 +07 24 23.6 19.9 R D29 – Purple Mountain Observatory, XuYi Station MPS 814799
2017 08 27.75823 23 54 27.97 +07 24 23.1 20.0 R D29 – Purple Mountain Observatory, XuYi Station MPS 814799
2017 09 11.50392 23 43 35.674 +07 37 43.71 19.1 i F51 – Pan-STARRS 1, Haleakala MPS 816827
2017 09 11.51536 23 43 35.076 +07 37 43.60 19.2 i F51 – Pan-STARRS 1, Haleakala MPS 816827
2017 09 11.53814 23 43 33.898 +07 37 43.28 19.3 i F51 – Pan-STARRS 1, Haleakala MPS 816827
2017 09 12.60992 23 42 40.61 +07 37 26.0 19.1 R D29 – Purple Mountain Observatory, XuYi Station MPS 816827
2017 09 12.63997 23 42 39.02 +07 37 25.8 19.4 R D29 – Purple Mountain Observatory, XuYi Station MPS 816827
